Flag for Italy Weather past 2 weeks in Ancona, Italy

Now
43 °F

Fog.


Feels Like: 43 °F
Forecast: 47 / 55 °F
Wind: 2 mph from North

Location: Falconara

Current Time: Dec 22, 2014 at 12:05:45 PM

Latest Report: Dec 22, 2014 at 10:50 AM


Visibility: 0 mi

Pressure: 30.48 "Hg

Humidity: 100%

Dew point: 43 °F

Location of AnconaLocation

Historic Weather in Ancona — Graph

°F

Ancona temperature yesterday

Maximum temperature yesterday: 52 °F (at 2:50 PM)
Minimum temperature yesterday: 39 °F (at 10:50 PM)
Average temperature yesterday: 45 °F

Past Weeks' High & Low Weather Summary

 TemperatureHumidityPressure
High64 °F (Dec 13, 1:50 PM)100% (Dec 14, 2:50 AM)30.48 "Hg (Dec 14, 2:50 AM)
Low32 °F (Dec 12, 7:50 AM)44% (Dec 12, 1:50 PM)29.71 "Hg (Dec 16, 5:50 PM)
Average47 °F86%30.10 "Hg
* Reported Dec 7 10:50 AM — Dec 22 10:50 AM, Ancona, Weather by CustomWeather, © 2014

Note: Actual official high and low records may vary slightly from our data, if they occured in-between our weather recording intervals... More about our weather records

Advertising

Ancona weather history for previous 24 hours

 ConditionsComfort  
Time TempWeatherWind HumidityBarometerVisibility
10:50 AM
Dec 22
43 °FFog.2 mph100%30.48 "Hg0 mi
9:50 AM41 °FFog.3 mph100%30.48 "Hg0 mi
8:50 AM41 °FFog.3 mph100%30.45 "Hg0 mi
7:50 AM41 °FFog.5 mph100%30.42 "Hg0 mi
6:50 AM41 °FFog.5 mph100%30.42 "Hg0 mi
5:50 AM41 °FFog.3 mph100%30.42 "HgN/A
4:50 AM41 °FFog.3 mph100%30.42 "Hg0 mi
3:50 AM41 °FFog.5 mph100%30.45 "Hg0 mi
2:50 AM43 °FFog.5 mph100%30.45 "Hg0 mi
1:50 AM45 °FFog.3 mph100%30.45 "Hg1 mi
12:50 AM43 °FFog.3 mph100%30.45 "Hg1 mi
11:50 PM
Dec 21
41 °FFog.3 mph100%30.48 "Hg0 mi
10:50 PM39 °FFog.6 mph100%30.48 "Hg0 mi
9:50 PM41 °FFog.6 mph100%30.45 "Hg0 mi
8:50 PM43 °FFog.3 mph100%30.48 "Hg0 mi
7:50 PM41 °FQuite cool.3 mph100%30.45 "Hg2 mi
6:50 PM43 °FFog.2 mph100%30.45 "Hg3 mi
5:50 PM46 °FPassing clouds.3 mph93%30.42 "Hg4 mi
4:50 PM48 °FPassing clouds.1 mph94%30.42 "Hg4 mi
3:50 PM48 °FPartly sunny.2 mph94%30.42 "Hg5 mi
2:50 PM52 °FScattered clouds.2 mph88%30.42 "Hg5 mi
1:50 PM50 °FPartly sunny.2 mph94%30.39 "Hg5 mi
12:50 PM50 °FPartly sunny.2 mph94%30.39 "Hg5 mi
Weather by CustomWeather, © 2014

See weather overviewHow to use our weather pages